This demonstration page uses our WeatherBlox Daily Observations layout. Learn more.

Left ArrowRight Arrow

36.19886, -115.1175

Hourly Observations for June 14, 2021

Temp ( °F °C ) Dew Point ( °F °C ) Humidity (%) Winds ( mph kmh ) Pressure ( in mb ) Visibility ( mi km ) Precip ( " mm )
12:53 am 00:53 Clear 87 30.6 27 -2.8 11 11 S 9 15 29.77 1008 10 16 N/A
1:53 am 01:53 Clear 87 30.6 24 -4.4 10 10 SSW 5 7 29.77 1008 10 16 N/A
2:53 am 02:53 Clear 84 28.9 23 -5 10 10 N N/A 29.79 1009 10 16 N/A
3:53 am 03:53 Clear 83 28.3 25 -3.9 12 12 SSE 6 9 29.79 1009 10 16 N/A
4:53 am 04:53 Clear 77 25 31 -0.6 18 18 NW 3 6 29.81 1010 10 16 N/A
5:53 am 05:53 Sunny 74 23.3 30 -1.1 20 20 NNW 5 7 29.83 1010 10 16 N/A
6:53 am 06:53 Sunny 80 26.7 35 1.7 20 20 N N/A 29.84 1011 10 16 N/A
7:53 am 07:53 Sunny 85 29.4 32 undefined 15 15 NNW 6 9 29.85 1011 10 16 N/A
8:53 am 08:53 Sunny 89 31.7 31 -0.6 12 12 N N/A 29.87 1012 10 16 N/A
9:53 am 09:53 Sunny 94 34.4 29 -1.7 10 10 S 6 9 29.86 1011 10 16 N/A
10:53 am 10:53 Sunny 99 37.2 23 -5 6 6 SE 10 17 29.85 1011 10 16 N/A
11:53 am 11:53 Sunny 102 38.9 20 -6.7 5 5 E 8 13 29.83 1010 10 16 N/A
12:53 pm 12:53 Sunny 106 41.1 18 -7.8 4 4 E 17 28 29.80 1009 10 16 N/A
1:25 pm 13:25 Sunny 110 43.3 8 -13.3 2 2 S 18 30 29.60 1003 10 16 N/A
1:53 pm 13:53 Sunny 109 42.8 13 -10.6 3 3 S 21 33 29.79 1009 10 16 N/A
2:53 pm 14:53 Sunny 109 42.8 15 -9.4 3 3 S 15 24 29.79 1009 10 16 N/A
3:53 pm 15:53 Sunny 110 43.3 14 -10 3 3 S 16 26 29.76 1008 10 16 N/A
4:53 pm 16:53 Sunny 111 43.9 14 -10 3 3 WSW 15 24 29.75 1008 10 16 N/A
5:53 pm 17:53 Sunny 109 42.8 15 -9.4 3 3 SW 10 17 29.75 1007 10 16 N/A
6:53 pm 18:53 Sunny 107 41.7 16 -8.9 4 4 SW 12 19 29.75 1008 10 16 N/A
7:53 pm 19:53 Sunny 105 40.6 17 -8.3 4 4 WSW 7 11 29.76 1008 10 16 N/A
8:53 pm 20:53 Clear 101 38.3 21 -6.1 6 6 W 8 13 29.77 1008 10 16 N/A
9:53 pm 21:53 Clear 98 36.7 22 -5.6 6 6 W 10 17 29.78 1009 10 16 N/A
10:53 pm 22:53 Clear 96 35.6 22 -5.6 7 7 NW 7 11 29.78 1009 10 16 N/A
11:53 pm 23:53 Clear 92 33.3 25 -3.9 9 9 SSW 5 7 29.79 1009 10 16 N/A

Powered by AerisWeather